DAL800 KDEN-KPIT

Flight info

Callsign DAL800
Flight time N/A
Altitude 35000
Route EMMYS8 ZIRKL PWE IRK SPI J80 EMPTY CTW FEWGA7
Aircraft B738/M-SDE2E3FGHIRWXY/LB1

Departure

Time 2026-05-06 12:52
Airport Denver International Airport (KDEN)

Arrival

Time N/A
Airport Pittsburgh International Airport (KPIT)
Time Latitude Longitude Altitude Speed Heading
2026-05-06 12:20 39.85452 -104.67719 5385 ft 0 kts 180°
2026-05-06 12:40 39.85468 -104.67719 5381 ft 3 kts 180°
2026-05-06 12:40 39.85487 -104.67719 5381 ft 3 kts 180°
2026-05-06 12:40 39.85507 -104.67719 5383 ft 3 kts 180°
2026-05-06 12:41 39.85526 -104.67719 5380 ft 3 kts 180°
2026-05-06 12:41 39.85545 -104.67719 5378 ft 3 kts 180°
2026-05-06 12:41 39.85547 -104.67719 5381 ft 0 kts 180°
2026-05-06 12:46 39.85545 -104.67719 5378 ft 2 kts 174°
2026-05-06 12:46 39.85539 -104.67688 5381 ft 7 kts 73°
2026-05-06 12:46 39.85577 -104.67591 5376 ft 17 kts 62°
2026-05-06 12:46 39.85592 -104.67413 5381 ft 23 kts 90°
2026-05-06 12:47 39.85591 -104.67171 5379 ft 29 kts 91°
2026-05-06 12:47 39.85588 -104.66881 5377 ft 35 kts 91°
2026-05-06 12:47 39.85586 -104.66551 5379 ft 39 kts 91°
2026-05-06 12:47 39.85586 -104.66295 5389 ft 18 kts 79°
2026-05-06 12:48 39.85664 -104.66240 5390 ft 16 kts
2026-05-06 12:48 39.85803 -104.66235 5388 ft 25 kts
2026-05-06 12:48 39.86004 -104.66233 5382 ft 33 kts
2026-05-06 12:48 39.86255 -104.66230 5378 ft 39 kts
2026-05-06 12:49 39.86541 -104.66223 5377 ft 43 kts
2026-05-06 12:49 39.86768 -104.66229 5372 ft 28 kts 357°
2026-05-06 12:49 39.86992 -104.66222 5365 ft 36 kts 359°
2026-05-06 12:49 39.87270 -104.66221 5359 ft 43 kts
2026-05-06 12:50 39.87538 -104.66211 5361 ft 40 kts
2026-05-06 12:50 39.87642 -104.66211 5361 ft 1 kts 358°
2026-05-06 12:50 39.87649 -104.66211 5361 ft 4 kts 358°
2026-05-06 12:50 39.87717 -104.66212 5361 ft 15 kts
2026-05-06 12:51 39.87754 -104.66157 5361 ft 0 kts 86°
2026-05-06 12:51 39.87755 -104.66135 5361 ft 19 kts 88°
2026-05-06 12:52 39.87751 -104.65617 5354 ft 94 kts 90°
2026-05-06 12:52 39.87748 -104.64484 5338 ft 153 kts 90°
2026-05-06 12:52 39.87738 -104.62882 5439 ft 197 kts 90°
2026-05-06 12:52 39.87654 -104.61038 6117 ft 210 kts 90°
2026-05-06 12:53 39.87646 -104.59068 6836 ft 223 kts 90°
2026-05-06 12:53 39.87635 -104.56964 7102 ft 240 kts 90°
2026-05-06 12:53 39.87619 -104.54739 7411 ft 252 kts 90°
2026-05-06 12:53 39.87597 -104.52406 7694 ft 263 kts 90°
2026-05-06 12:54 39.87571 -104.49984 7939 ft 271 kts 90°
2026-05-06 12:54 39.87543 -104.47550 8160 ft 272 kts 90°
2026-05-06 12:54 39.87512 -104.45081 8382 ft 273 kts 90°
2026-05-06 12:54 39.87480 -104.42610 8645 ft 273 kts 90°
2026-05-06 12:55 39.87449 -104.40141 8920 ft 273 kts 90°
2026-05-06 12:55 39.87435 -104.37659 9186 ft 275 kts 90°
2026-05-06 12:55 39.87428 -104.35169 9457 ft 276 kts 89°
2026-05-06 12:55 39.87419 -104.32666 9744 ft 276 kts 90°
2026-05-06 12:56 39.87409 -104.30161 10006 ft 277 kts 90°
2026-05-06 12:56 39.87398 -104.27643 10251 ft 278 kts 90°
2026-05-06 12:56 39.87385 -104.25112 10721 ft 282 kts 90°
2026-05-06 12:56 39.87372 -104.22523 11358 ft 288 kts 90°
2026-05-06 12:57 39.87358 -104.19899 11983 ft 294 kts 90°
2026-05-06 12:57 39.87342 -104.17200 12583 ft 301 kts 90°
2026-05-06 12:57 39.87326 -104.14478 13219 ft 306 kts 90°
2026-05-06 12:57 39.87309 -104.11682 13909 ft 310 kts 91°
2026-05-06 12:58 39.87291 -104.08845 14465 ft 316 kts 91°
2026-05-06 12:58 39.87272 -104.05951 15031 ft 321 kts 90°
2026-05-06 12:58 39.87252 -104.03010 15598 ft 327 kts 90°
2026-05-06 12:58 39.87232 -104.00030 16166 ft 332 kts 90°
2026-05-06 12:59 39.87210 -103.97007 16737 ft 337 kts 90°
2026-05-06 12:59 39.87187 -103.93934 17310 ft 342 kts 90°
2026-05-06 12:59 39.87169 -103.90854 17872 ft 347 kts 89°
2026-05-06 12:59 39.87308 -103.87702 18442 ft 351 kts 84°
2026-05-06 13:00 39.87554 -103.84520 18934 ft 356 kts 83°
2026-05-06 13:00 39.87819 -103.81294 19438 ft 360 kts 84°
2026-05-06 13:00 39.88066 -103.78029 19934 ft 364 kts 84°
2026-05-06 13:00 39.88300 -103.74715 20418 ft 369 kts 85°
2026-05-06 13:01 39.88567 -103.71376 20897 ft 373 kts 82°
2026-05-06 13:01 39.88929 -103.68002 21371 ft 378 kts 81°
2026-05-06 13:01 39.89333 -103.64598 21841 ft 382 kts 81°
2026-05-06 13:01 39.89749 -103.61159 22301 ft 387 kts 81°
2026-05-06 13:02 39.90168 -103.57672 22756 ft 391 kts 81°
2026-05-06 13:02 39.90580 -103.54192 23221 ft 396 kts 81°
2026-05-06 13:02 39.90996 -103.50619 23668 ft 400 kts 82°
2026-05-06 13:02 39.91410 -103.47018 24045 ft 405 kts 82°
2026-05-06 13:03 39.91825 -103.43378 24460 ft 407 kts 82°
2026-05-06 13:03 39.92240 -103.39714 24870 ft 410 kts 82°
2026-05-06 13:03 39.92655 -103.36029 25267 ft 413 kts 83°
2026-05-06 13:03 39.93071 -103.32314 25641 ft 416 kts 83°
2026-05-06 13:04 39.93490 -103.28568 26025 ft 419 kts 83°
2026-05-06 13:04 39.93911 -103.24792 26431 ft 422 kts 83°
2026-05-06 13:04 39.94333 -103.21003 26834 ft 423 kts 83°
2026-05-06 13:04 39.94754 -103.17205 27301 ft 423 kts 84°
2026-05-06 13:05 39.95174 -103.13412 27790 ft 422 kts 84°
2026-05-06 13:05 39.95592 -103.09619 28241 ft 422 kts 84°
2026-05-06 13:05 39.96004 -103.05873 28659 ft 423 kts 84°
2026-05-06 13:06 39.96850 -102.98100 28851 ft 442 kts 85°
2026-05-06 13:06 39.97728 -102.90000 29050 ft 460 kts 85°
2026-05-06 13:07 39.98636 -102.81580 29208 ft 477 kts 85°
2026-05-06 13:07 39.99570 -102.72867 29366 ft 493 kts 85°
2026-05-06 13:08 40.00527 -102.63874 29504 ft 507 kts 85°
2026-05-06 13:08 40.01501 -102.54662 29752 ft 517 kts 85°
2026-05-06 13:08 40.01991 -102.49998 30017 ft 519 kts 85°
2026-05-06 13:09 40.02481 -102.45334 30386 ft 517 kts 85°
2026-05-06 13:09 40.02960 -102.40751 30693 ft 517 kts 85°
2026-05-06 13:09 40.03443 -102.36099 30941 ft 517 kts 85°
2026-05-06 13:09 40.03925 -102.31431 31160 ft 519 kts 85°
2026-05-06 13:10 40.04406 -102.26753 31414 ft 519 kts 85°
2026-05-06 13:10 40.04886 -102.22073 31694 ft 519 kts 85°
2026-05-06 13:10 40.05363 -102.17397 31939 ft 520 kts 85°
2026-05-06 13:10 40.05838 -102.12725 32172 ft 520 kts 85°
2026-05-06 13:11 40.06312 -102.08031 32404 ft 521 kts 85°
2026-05-06 13:11 40.06779 -102.03401 32642 ft 521 kts 85°
2026-05-06 13:11 40.07252 -101.98687 32880 ft 522 kts 84°
2026-05-06 13:11 40.07723 -101.93976 33104 ft 523 kts 84°
2026-05-06 13:12 40.08193 -101.89259 33329 ft 523 kts 84°
2026-05-06 13:12 40.08660 -101.84543 33549 ft 524 kts 84°
2026-05-06 13:12 40.09127 -101.79816 33773 ft 524 kts 84°
2026-05-06 13:12 40.09592 -101.75083 33995 ft 525 kts 84°
2026-05-06 13:13 40.10055 -101.70351 34196 ft 526 kts 84°
2026-05-06 13:13 40.10518 -101.65597 34371 ft 526 kts 84°
2026-05-06 13:13 40.10973 -101.60911 34557 ft 527 kts 84°
2026-05-06 13:13 40.11432 -101.56155 34742 ft 527 kts 84°
2026-05-06 13:14 40.11890 -101.51401 34907 ft 527 kts 84°
2026-05-06 13:14 40.12346 -101.46641 35081 ft 527 kts 84°
2026-05-06 13:14 40.12799 -101.41889 35155 ft 529 kts 84°
2026-05-06 13:15 40.13580 -101.32283 35159 ft 529 kts 88°
2026-05-06 13:15 40.13901 -101.22699 35169 ft 527 kts 91°
2026-05-06 13:16 40.14118 -101.13163 35165 ft 526 kts 91°
2026-05-06 13:16 40.14380 -101.03624 35174 ft 526 kts 90°
2026-05-06 13:17 40.14671 -100.94353 35159 ft 526 kts 90°
2026-05-06 13:18 40.14900 -100.87197 35171 ft 527 kts 90°
2026-05-06 13:18 40.15008 -100.83783 35169 ft 527 kts 90°
2026-05-06 13:19 40.15303 -100.74190 35168 ft 529 kts 90°
2026-05-06 13:19 40.15541 -100.66179 35162 ft 531 kts 90°
2026-05-06 13:20 40.15819 -100.56522 35168 ft 532 kts 90°
2026-05-06 13:20 40.16090 -100.46823 35168 ft 534 kts 91°
2026-05-06 13:21 40.16354 -100.37086 35174 ft 536 kts 91°
2026-05-06 13:21 40.16611 -100.27332 35161 ft 537 kts 91°
2026-05-06 13:22 40.16859 -100.17605 35166 ft 538 kts 91°
2026-05-06 13:22 40.17101 -100.07816 35166 ft 539 kts 91°
2026-05-06 13:23 40.17334 -99.98002 35164 ft 539 kts 91°
2026-05-06 13:23 40.17560 -99.88191 35167 ft 539 kts 91°
2026-05-06 13:24 40.17775 -99.78442 35166 ft 540 kts 91°
2026-05-06 13:24 40.17984 -99.68603 35156 ft 541 kts 91°
2026-05-06 13:25 40.18185 -99.58767 35160 ft 541 kts 91°
2026-05-06 13:25 40.18377 -99.48936 35162 ft 541 kts 92°
2026-05-06 13:26 40.18562 -99.39079 35161 ft 541 kts 92°
2026-05-06 13:26 40.18737 -99.29278 35158 ft 542 kts 92°
2026-05-06 13:27 40.18905 -99.19393 35159 ft 543 kts 92°
2026-05-06 13:27 40.19065 -99.09509 35154 ft 544 kts 92°
2026-05-06 13:28 40.19217 -98.99600 35152 ft 545 kts 92°
2026-05-06 13:28 40.19360 -98.89674 35156 ft 546 kts 92°
2026-05-06 13:29 40.19495 -98.79774 35151 ft 547 kts 92°
2026-05-06 13:29 40.19623 -98.69793 35159 ft 548 kts 92°
2026-05-06 13:30 40.19741 -98.59817 35157 ft 549 kts 92°
2026-05-06 13:30 40.19852 -98.49805 35159 ft 550 kts 93°
2026-05-06 13:31 40.19953 -98.39829 35149 ft 551 kts 93°
2026-05-06 13:31 40.20047 -98.29784 35151 ft 552 kts 93°
2026-05-06 13:32 40.20132 -98.19732 35150 ft 553 kts 93°
2026-05-06 13:32 40.20208 -98.09654 35151 ft 554 kts 93°
2026-05-06 13:33 40.20276 -97.99560 35150 ft 555 kts 93°
2026-05-06 13:33 40.20335 -97.89503 35157 ft 556 kts 93°
2026-05-06 13:34 40.20386 -97.79393 35166 ft 556 kts 94°
2026-05-06 13:34 40.20427 -97.69246 35177 ft 557 kts 94°
2026-05-06 13:35 40.20460 -97.59084 35178 ft 558 kts 94°
2026-05-06 13:35 40.20484 -97.48909 35177 ft 559 kts 94°
2026-05-06 13:36 40.20499 -97.38783 35168 ft 560 kts 94°
2026-05-06 13:36 40.20506 -97.28568 35163 ft 561 kts 94°
2026-05-06 13:37 40.20503 -97.18359 35161 ft 561 kts 94°
2026-05-06 13:37 40.20491 -97.08113 35155 ft 562 kts 94°
2026-05-06 13:38 40.20470 -96.97869 35161 ft 563 kts 94°
2026-05-06 13:38 40.20441 -96.87600 35159 ft 564 kts 94°
2026-05-06 13:39 40.20402 -96.77378 35168 ft 565 kts 94°
2026-05-06 13:39 40.20354 -96.67082 35161 ft 566 kts 95°
2026-05-06 13:40 40.20296 -96.56772 35167 ft 566 kts 95°
2026-05-06 13:40 40.20230 -96.46509 35155 ft 567 kts 95°
2026-05-06 13:41 40.20155 -96.36178 35150 ft 568 kts 95°
2026-05-06 13:41 40.20071 -96.25835 35133 ft 569 kts 95°
2026-05-06 13:42 40.19989 -96.15471 35135 ft 570 kts 95°
2026-05-06 13:42 40.19954 -96.05098 35136 ft 571 kts 94°
2026-05-06 13:43 40.19924 -95.94682 35133 ft 572 kts 95°
2026-05-06 13:43 40.19877 -95.84244 35136 ft 573 kts 95°
2026-05-06 13:44 40.19815 -95.73860 35140 ft 574 kts 95°
2026-05-06 13:44 40.19741 -95.63417 35143 ft 575 kts 95°
2026-05-06 13:45 40.19657 -95.52941 35141 ft 576 kts 95°
2026-05-06 13:45 40.19516 -95.37184 35138 ft 577 kts 95°
2026-05-06 13:46 40.19410 -95.26671 35130 ft 579 kts 95°
2026-05-06 13:46 40.19294 -95.16138 35133 ft 580 kts 95°
2026-05-06 13:47 40.19168 -95.05587 35130 ft 580 kts 95°
2026-05-06 13:47 40.19033 -94.95096 35137 ft 581 kts 95°
2026-05-06 13:48 40.18888 -94.84524 35139 ft 581 kts 95°
2026-05-06 13:48 40.18733 -94.73938 35131 ft 582 kts 96°
2026-05-06 13:49 40.18569 -94.63370 35126 ft 582 kts 96°
2026-05-06 13:49 40.18394 -94.52751 35117 ft 582 kts 96°
2026-05-06 13:50 40.18209 -94.42149 35116 ft 583 kts 96°
2026-05-06 13:50 40.18017 -94.31624 35121 ft 583 kts 96°
2026-05-06 13:51 40.17813 -94.21001 35116 ft 583 kts 96°
2026-05-06 13:51 40.17599 -94.10398 35117 ft 583 kts 96°
2026-05-06 13:52 40.17376 -93.99769 35118 ft 583 kts 96°
2026-05-06 13:52 40.17144 -93.89214 35118 ft 584 kts 96°
2026-05-06 13:53 40.16901 -93.78596 35120 ft 584 kts 96°
2026-05-06 13:53 40.16648 -93.67951 35123 ft 584 kts 96°
2026-05-06 13:54 40.16385 -93.57311 35117 ft 585 kts 96°
2026-05-06 13:54 40.16115 -93.46751 35109 ft 585 kts 96°
2026-05-06 13:55 40.15832 -93.36108 35114 ft 586 kts 96°
2026-05-06 13:55 40.15539 -93.25438 35118 ft 586 kts 97°
2026-05-06 13:56 40.15236 -93.14765 35117 ft 587 kts 97°
2026-05-06 13:56 40.14926 -93.04153 35114 ft 588 kts 97°
2026-05-06 13:57 40.14603 -92.93468 35108 ft 588 kts 97°
2026-05-06 13:57 40.14271 -92.82771 35096 ft 589 kts 97°
2026-05-06 13:58 40.13928 -92.72074 35087 ft 589 kts 97°
2026-05-06 13:58 40.13576 -92.61373 35089 ft 589 kts 97°
2026-05-06 13:59 40.12911 -92.50785 35093 ft 586 kts 102°
2026-05-06 13:59 40.11904 -92.40221 35097 ft 585 kts 103°
2026-05-06 14:00 40.10863 -92.29661 35101 ft 586 kts 103°
2026-05-06 14:00 40.09866 -92.19062 35099 ft 587 kts 102°
2026-05-06 14:01 40.08898 -92.08523 35097 ft 588 kts 102°
2026-05-06 14:01 40.07915 -91.97906 35095 ft 588 kts 102°
2026-05-06 14:02 40.07087 -91.89075 35097 ft 588 kts 102°
2026-05-06 14:02 40.05912 -91.76731 35087 ft 589 kts 103°
2026-05-06 14:03 40.05056 -91.67835 35084 ft 589 kts 103°
2026-05-06 14:03 40.04034 -91.57292 35075 ft 589 kts 103°
2026-05-06 14:04 40.02995 -91.46680 35068 ft 589 kts 103°
2026-05-06 14:04 40.01948 -91.36082 35069 ft 589 kts 103°
2026-05-06 14:05 40.00891 -91.25487 35060 ft 589 kts 103°
2026-05-06 14:05 39.99823 -91.14884 35058 ft 589 kts 103°
2026-05-06 14:06 39.98746 -91.04296 35070 ft 589 kts 103°
2026-05-06 14:06 39.97660 -90.93710 35059 ft 589 kts 103°
2026-05-06 14:07 39.96564 -90.83127 35057 ft 589 kts 103°
2026-05-06 14:07 39.95459 -90.72554 35061 ft 588 kts 103°
2026-05-06 14:08 39.94351 -90.62043 35061 ft 588 kts 103°
2026-05-06 14:08 39.93226 -90.51466 35059 ft 588 kts 103°
2026-05-06 14:09 39.92091 -90.40891 35057 ft 589 kts 103°
2026-05-06 14:09 39.90948 -90.30329 35051 ft 589 kts 103°
2026-05-06 14:10 39.89795 -90.19767 35048 ft 589 kts 103°
2026-05-06 14:10 39.88632 -90.09207 35048 ft 589 kts 103°
2026-05-06 14:11 39.87465 -89.98699 35047 ft 589 kts 103°
2026-05-06 14:11 39.86281 -89.88134 35036 ft 589 kts 104°
2026-05-06 14:12 39.85090 -89.77585 35036 ft 589 kts 104°
2026-05-06 14:12 39.83960 -89.67017 35029 ft 592 kts 99°
2026-05-06 14:13 39.83862 -89.56268 35037 ft 595 kts 91°
2026-05-06 14:13 39.84039 -89.45560 35040 ft 595 kts 91°
2026-05-06 14:14 39.84160 -89.34773 35026 ft 595 kts 92°
2026-05-06 14:14 39.84202 -89.24005 35034 ft 595 kts 92°
2026-05-06 14:15 39.84216 -89.13228 35023 ft 595 kts 92°
2026-05-06 14:15 39.84228 -89.02452 35032 ft 594 kts 92°
2026-05-06 14:16 39.84236 -88.91773 35034 ft 594 kts 92°
2026-05-06 14:16 39.84235 -88.81038 35029 ft 593 kts 93°
2026-05-06 14:17 39.84223 -88.70298 35026 ft 592 kts 93°
2026-05-06 14:17 39.84201 -88.59568 35026 ft 592 kts 93°
2026-05-06 14:18 39.84170 -88.48834 35015 ft 592 kts 93°
2026-05-06 14:18 39.84122 -88.38117 35021 ft 591 kts 93°
2026-05-06 14:19 39.84065 -88.27490 35020 ft 591 kts 93°
2026-05-06 14:19 39.84000 -88.16776 35021 ft 591 kts 93°
2026-05-06 14:20 39.83927 -88.06075 35017 ft 591 kts 93°
2026-05-06 14:20 39.83845 -87.95382 35014 ft 591 kts 94°
2026-05-06 14:21 39.83754 -87.84696 35019 ft 591 kts 94°
2026-05-06 14:21 39.83652 -87.73991 35023 ft 591 kts 94°
2026-05-06 14:22 39.83540 -87.63298 35020 ft 591 kts 94°
2026-05-06 14:22 39.83418 -87.52607 35016 ft 591 kts 94°
2026-05-06 14:23 39.83288 -87.41969 35014 ft 591 kts 94°
2026-05-06 14:23 39.83146 -87.31268 35004 ft 591 kts 94°
2026-05-06 14:24 39.82996 -87.20583 35007 ft 591 kts 94°
2026-05-06 14:24 39.82835 -87.09894 35009 ft 591 kts 94°
2026-05-06 14:25 39.82665 -86.99214 35016 ft 590 kts 94°
2026-05-06 14:25 39.82485 -86.88577 35015 ft 590 kts 94°
2026-05-06 14:26 39.82295 -86.77898 35007 ft 590 kts 94°
2026-05-06 14:26 39.82096 -86.67219 35008 ft 590 kts 94°
2026-05-06 14:27 39.81886 -86.56537 34995 ft 590 kts 95°
2026-05-06 14:27 39.81668 -86.45856 34995 ft 589 kts 95°
2026-05-06 14:28 39.81502 -86.35217 34986 ft 590 kts 90°
2026-05-06 14:28 39.82062 -86.24630 34998 ft 590 kts 86°
2026-05-06 14:29 39.82780 -86.13992 34999 ft 591 kts 86°
2026-05-06 14:29 39.83453 -86.03343 35018 ft 591 kts 87°
2026-05-06 14:30 39.84070 -85.92650 35000 ft 591 kts 87°
2026-05-06 14:30 39.84657 -85.82036 34999 ft 591 kts 87°
2026-05-06 14:31 39.85243 -85.71348 34999 ft 591 kts 87°
2026-05-06 14:31 39.85825 -85.60645 34997 ft 591 kts 87°
2026-05-06 14:32 39.86397 -85.49958 34992 ft 592 kts 87°
2026-05-06 14:32 39.86959 -85.39271 34996 ft 592 kts 87°
2026-05-06 14:33 39.87508 -85.28632 34986 ft 592 kts 88°
2026-05-06 14:33 39.88050 -85.17927 34987 ft 591 kts 88°
2026-05-06 14:34 39.88582 -85.07239 34986 ft 591 kts 88°
2026-05-06 14:34 39.89104 -84.96552 34989 ft 590 kts 88°
2026-05-06 14:35 39.89612 -84.85933 34987 ft 590 kts 88°
2026-05-06 14:35 39.90113 -84.75267 34986 ft 590 kts 88°
2026-05-06 14:36 39.90606 -84.64609 34978 ft 589 kts 88°
2026-05-06 14:36 39.91087 -84.53933 34980 ft 589 kts 88°
2026-05-06 14:37 39.91553 -84.43349 34975 ft 588 kts 88°
2026-05-06 14:37 39.92014 -84.32695 34981 ft 588 kts 88°
2026-05-06 14:38 39.92464 -84.22062 34990 ft 588 kts 88°
2026-05-06 14:38 39.92901 -84.11484 34980 ft 588 kts 88°
2026-05-06 14:39 39.93332 -84.00849 34965 ft 585 kts 88°
2026-05-06 14:39 39.93541 -83.95608 34944 ft 574 kts 88°
2026-05-06 14:39 39.93746 -83.90430 34959 ft 569 kts 88°
2026-05-06 14:40 39.94143 -83.80166 34964 ft 566 kts 88°
2026-05-06 14:40 39.94529 -83.69930 34963 ft 565 kts 89°
2026-05-06 14:41 39.94905 -83.59709 34973 ft 564 kts 89°
2026-05-06 14:41 39.95273 -83.49529 34966 ft 564 kts 89°
2026-05-06 14:42 39.95632 -83.39311 34983 ft 564 kts 89°
2026-05-06 14:42 39.95983 -83.29076 34953 ft 566 kts 89°
2026-05-06 14:43 39.96371 -83.18835 34944 ft 566 kts 85°
2026-05-06 14:43 39.97764 -83.08728 34605 ft 570 kts 76°
2026-05-06 14:44 39.98629 -83.03681 34071 ft 570 kts 75°
2026-05-06 14:44 39.99508 -82.98630 33446 ft 571 kts 76°
2026-05-06 14:44 40.00376 -82.93572 32818 ft 571 kts 76°
2026-05-06 14:45 40.01768 -82.85170 31984 ft 567 kts 77°
2026-05-06 14:45 40.02575 -82.80154 31537 ft 563 kts 77°
2026-05-06 14:45 40.03368 -82.75166 31103 ft 559 kts 77°
2026-05-06 14:45 40.04152 -82.70205 30671 ft 555 kts 77°
2026-05-06 14:46 40.05180 -82.63682 30099 ft 550 kts 77°
2026-05-06 14:46 40.05701 -82.60376 29778 ft 548 kts 77°
2026-05-06 14:46 40.06464 -82.55531 29362 ft 542 kts 77°
2026-05-06 14:46 40.07220 -82.50724 28850 ft 539 kts 77°
2026-05-06 14:47 40.07971 -82.45941 28381 ft 534 kts 77°
2026-05-06 14:47 40.08702 -82.41270 27944 ft 530 kts 78°
2026-05-06 14:47 40.09436 -82.36572 27509 ft 525 kts 78°
2026-05-06 14:47 40.10161 -82.31911 27072 ft 521 kts 78°
2026-05-06 14:48 40.10878 -82.27291 26644 ft 517 kts 78°
2026-05-06 14:48 40.11586 -82.22714 26217 ft 513 kts 78°
2026-05-06 14:48 40.12289 -82.18157 25793 ft 509 kts 78°
2026-05-06 14:48 40.12985 -82.13636 25373 ft 505 kts 78°
2026-05-06 14:49 40.13673 -82.09151 24956 ft 501 kts 79°
2026-05-06 14:49 40.14356 -82.04689 24532 ft 498 kts 79°
2026-05-06 14:49 40.15031 -82.00269 24109 ft 495 kts 79°
2026-05-06 14:49 40.15701 -81.95867 23689 ft 492 kts 79°
2026-05-06 14:50 40.16365 -81.91490 23217 ft 489 kts 79°
2026-05-06 14:50 40.17023 -81.87141 22759 ft 485 kts 79°
2026-05-06 14:50 40.17665 -81.82886 22332 ft 481 kts 79°
2026-05-06 14:50 40.18309 -81.78609 21911 ft 476 kts 79°
2026-05-06 14:51 40.18944 -81.74382 21498 ft 471 kts 79°
2026-05-06 14:51 40.19572 -81.70186 21100 ft 466 kts 79°
2026-05-06 14:51 40.20192 -81.66041 20700 ft 462 kts 78°
2026-05-06 14:51 40.20805 -81.61925 20301 ft 457 kts 78°
2026-05-06 14:52 40.21407 -81.57881 19910 ft 453 kts 78°
2026-05-06 14:52 40.22007 -81.53837 19560 ft 448 kts 78°
2026-05-06 14:52 40.22523 -81.49832 19094 ft 445 kts 87°
2026-05-06 14:52 40.22308 -81.45839 18710 ft 437 kts 107°
2026-05-06 14:53 40.21318 -81.42125 18348 ft 428 kts 116°
2026-05-06 14:53 40.20158 -81.38560 17907 ft 424 kts 117°
2026-05-06 14:53 40.19000 -81.35084 17513 ft 419 kts 117°
2026-05-06 14:53 40.17849 -81.31609 17232 ft 412 kts 117°
2026-05-06 14:54 40.16727 -81.28188 16868 ft 407 kts 117°
2026-05-06 14:54 40.15628 -81.24801 16504 ft 402 kts 117°
2026-05-06 14:54 40.14545 -81.21444 16143 ft 398 kts 117°
2026-05-06 14:54 40.13477 -81.18126 15788 ft 394 kts 117°
2026-05-06 14:55 40.12420 -81.14837 15440 ft 390 kts 117°
2026-05-06 14:55 40.11372 -81.11581 15093 ft 387 kts 117°
2026-05-06 14:55 40.10333 -81.08356 14753 ft 383 kts 117°
2026-05-06 14:55 40.09302 -81.05162 14418 ft 380 kts 117°
2026-05-06 14:56 40.08279 -81.01995 14084 ft 376 kts 117°
2026-05-06 14:56 40.07265 -80.98859 13752 ft 373 kts 117°
2026-05-06 14:56 40.06255 -80.95737 13388 ft 370 kts 117°
2026-05-06 14:56 40.05268 -80.92691 13046 ft 367 kts 117°
2026-05-06 14:57 40.04275 -80.89632 12696 ft 363 kts 117°
2026-05-06 14:57 40.03317 -80.86588 12375 ft 361 kts 111°
2026-05-06 14:57 40.02987 -80.83341 12037 ft 364 kts 86°
2026-05-06 14:57 40.03599 -80.80164 11728 ft 361 kts 64°
2026-05-06 14:58 40.04969 -80.77475 11421 ft 353 kts 44°
2026-05-06 14:58 40.06712 -80.75251 11129 ft 349 kts 39°
2026-05-06 14:58 40.08492 -80.73101 10806 ft 347 kts 40°
2026-05-06 14:58 40.10231 -80.70972 10509 ft 346 kts 40°
2026-05-06 14:59 40.11968 -80.68806 10206 ft 344 kts 41°
2026-05-06 14:59 40.13678 -80.66626 9967 ft 340 kts 43°
2026-05-06 14:59 40.15293 -80.64457 9964 ft 324 kts 43°
2026-05-06 14:59 40.16829 -80.62376 9785 ft 316 kts 43°
2026-05-06 15:00 40.18370 -80.60297 9390 ft 317 kts 43°
2026-05-06 15:00 40.19893 -80.58248 9134 ft 311 kts 43°
2026-05-06 15:00 40.21389 -80.56246 8935 ft 304 kts 43°
2026-05-06 15:00 40.22856 -80.54283 8763 ft 299 kts 43°
2026-05-06 15:01 40.24304 -80.52343 8594 ft 297 kts 43°
2026-05-06 15:01 40.25744 -80.50414 8390 ft 296 kts 43°
2026-05-06 15:01 40.27043 -80.48367 8197 ft 297 kts 58°
2026-05-06 15:01 40.28007 -80.45979 8055 ft 295 kts 63°
2026-05-06 15:02 40.28925 -80.43567 7876 ft 297 kts 63°
2026-05-06 15:02 40.29854 -80.41137 7708 ft 298 kts 63°
2026-05-06 15:02 40.30795 -80.38711 7524 ft 298 kts 62°
2026-05-06 15:02 40.31740 -80.36306 7336 ft 296 kts 62°
2026-05-06 15:03 40.32688 -80.33904 7139 ft 295 kts 62°
2026-05-06 15:03 40.33632 -80.31518 6964 ft 295 kts 62°
2026-05-06 15:03 40.34170 -80.30157 6855 ft 293 kts 62°
2026-05-06 15:04 40.34867 -80.28388 6721 ft 290 kts 62°
2026-05-06 15:04 40.35783 -80.26057 6539 ft 286 kts 63°
2026-05-06 15:05 40.36689 -80.23748 6377 ft 285 kts 62°
2026-05-06 15:05 40.37603 -80.21422 6211 ft 289 kts 62°
2026-05-06 15:05 40.38529 -80.19077 6029 ft 290 kts 61°
2026-05-06 15:05 40.39455 -80.16729 5849 ft 289 kts 63°
2026-05-06 15:06 40.40005 -80.14234 5637 ft 284 kts 90°
2026-05-06 15:06 40.39956 -80.11676 5491 ft 277 kts 95°
2026-05-06 15:06 40.39868 -80.09154 5307 ft 277 kts 94°
2026-05-06 15:06 40.39784 -80.06623 5143 ft 277 kts 94°
2026-05-06 15:07 40.39706 -80.04090 4967 ft 278 kts 94°
2026-05-06 15:07 40.39630 -80.01567 4810 ft 274 kts 94°
2026-05-06 15:07 40.39546 -79.99085 4630 ft 269 kts 94°
2026-05-06 15:07 40.39468 -79.96685 4592 ft 256 kts 93°
2026-05-06 15:08 40.39424 -79.94381 4599 ft 251 kts 92°
2026-05-06 15:08 40.39443 -79.92083 4589 ft 262 kts 81°
2026-05-06 15:08 40.40059 -79.89781 4627 ft 276 kts 58°
2026-05-06 15:08 40.41305 -79.87876 4619 ft 276 kts 35°
2026-05-06 15:09 40.42983 -79.86731 4601 ft 269 kts
2026-05-06 15:09 40.44707 -79.86859 4606 ft 253 kts 333°
2026-05-06 15:09 40.46028 -79.88242 4605 ft 241 kts 300°
2026-05-06 15:09 40.46764 -79.90148 4599 ft 225 kts 288°
2026-05-06 15:10 40.47231 -79.92031 4514 ft 214 kts 284°
2026-05-06 15:10 40.47571 -79.93878 4411 ft 211 kts 278°
2026-05-06 15:10 40.47819 -79.95797 4327 ft 213 kts 277°
2026-05-06 15:10 40.47966 -79.97723 4220 ft 209 kts 274°
2026-05-06 15:11 40.48034 -79.99601 4085 ft 205 kts 272°
2026-05-06 15:11 40.48079 -80.01476 4005 ft 203 kts 272°
2026-05-06 15:11 40.48121 -80.03305 3800 ft 196 kts 274°
2026-05-06 15:11 40.48163 -80.05042 3570 ft 186 kts 274°
2026-05-06 15:12 40.48204 -80.06724 3288 ft 182 kts 275°
2026-05-06 15:12 40.48243 -80.08374 3141 ft 184 kts 275°
2026-05-06 15:12 40.48285 -80.10109 2834 ft 193 kts 276°
2026-05-06 15:12 40.48332 -80.11869 2579 ft 193 kts 275°
2026-05-06 15:13 40.48375 -80.13635 2326 ft 191 kts 275°
2026-05-06 15:13 40.48420 -80.15350 2067 ft 187 kts 276°
2026-05-06 15:13 40.48459 -80.17050 1794 ft 182 kts 275°
2026-05-06 15:13 40.48503 -80.18714 1525 ft 183 kts 275°
2026-05-06 15:14 40.48552 -80.20379 1410 ft 181 kts 276°
2026-05-06 15:14 40.48574 -80.22052 1219 ft 185 kts 274°
2026-05-06 15:14 40.48665 -80.23726 1621 ft 172 kts 277°
2026-05-06 15:14 40.48795 -80.25324 2205 ft 189 kts 283°
2026-05-06 15:15 40.48926 -80.27044 2415 ft 184 kts 270°
2026-05-06 15:15 40.48838 -80.28457 3628 ft 129 kts 271°
2026-05-06 15:15 40.48754 -80.29557 4115 ft 132 kts 252°
2026-05-06 15:15 40.47757 -80.30038 3644 ft 192 kts 160°